CAPE
0 0 0 36 76 67 58 12 27 119 178 190 217 433 760 682 272 197 161 24 216 756 940 452 568 284 1275 2252 2597 2599 2383 2800
0 0 0 1 16 65 33 7 68 139 181 239 264 312 391 88 0 1 5 6 2 26 240 340 747 380 1303 2217 2571 2611 2417 2584
8 0 0 5 20 2 14 59 111 177 106 373 249 123 4 0 0 0 1 3 3 2 4 3 108 327 49 1933 2534 2677 2628 2545
5 0 0 2 3 0 74 71 30 22 0 149 7 0 0 0 0 0 0 0 3 2 4 4 2 0 0 192 231 2215 2439 2574
6 5 0 0 0 0 7 45 287 32 44 36 0 0 0 0 0 0 0 0 0 6 2 3 3 3 3 3 1 22 739 2499
0 0 0 0 0 0 0 6 12 121 278 29 0 0 0 0 0 0 0 0 0 0 0 0 1 3 1 6 1 7 3 367
2 0 0 0 0 0 0 0 129 341 373 19 3 0 0 0 0 0 0 0 0 0 0 0 0 0 0 1 1 2 2 55
0 0 0 0 0 6 0 0 39 180 191 7 0 0 0 0 0 0 0 0 0 0 0 0 0 0 0 0 0 0 0 3
10 0 0 0 0 0 0 0 377 320 55 1 0 1 1 0 0 0 0 0 0 0 0 0 0 0 0 0 0 0 0 0
47 1 0 0 0 0 0 20 221 201 36 9 1 0 0 0 0 0 0 0 0 0 0 0 0 0 0 0 0 0 0 0
84 1 7 1 0 0 0 30 68 32 1 4 0 0 0 0 0 0 0 0 0 0 0 0 0 0 0 0 0 0 0 0
68 55 47 37 0 0 0 38 1 0 0 0 0 0 0 0 0 0 0 0 0 0 0 0 0 0 0 0 0 0 0 0
61 94 179 1 0 0 0 6 0 1 0 0 0 0 0 0 0 0 0 0 0 0 0 0 0 0 0 0 0 0 0 0
36 157 318 0 0 0 2 0 0 0 0 0 0 0 0 0 0 0 0 0 0 0 0 0 0 0 0 0 1 0 0 3
160 377 178 1 1 0 0 0 0 0 0 0 0 0 0 0 0 0 0 0 0 0 0 0 0 0 0 12 9 10 10 6
83 68 74 70 7 0 0 0 0 0 0 0 0 0 0 0 0 0 0 0 0 0 0 0 2 1 1 8 16 13 12 11
18 3 3 0 4 0 0 0 0 0 0 0 0 0 0 0 0 0 0 2 0 0 1 3 8 8 1 10 7 1 3 2
473 112 160 114 26 14 0 0 0 0 0 0 0 0 0 0 4 0 1 6 3 1 1 4 7 8 22 21 15 3 0 0
250 352 287 113 214 28 9 5 0 0 5 6 1 1 1 9 6 6 5 14 0 1 4 3 6 10 17 18 16 12 5 4
CIN
0 0 0 -2 0 -1 0 -2 0 -15 -40 0 -2 -23 -16 -40 -143 -110 -168 -163 -102 -7 -2 -92 -20 -16 -10 -24 -7 0 0 -1
0 0 0 -37 -6 -1 0 -2 -8 -18 -54 -8 -1 -75 -110 -239 0 0 0 0 0 -190 -37 -151 -21 -6 -3 -22 -21 -13 -1 0
-4 0 0 -2 -7 -11 -5 -1 0 -2 -22 -11 -8 -52 -80 0 0 0 0 0 0 0 0 -56 -174 -190 -160 -10 -13 -5 0 -2
-1 0 0 -2 -16 0 -2 -12 -6 -258 -7 -22 -70 0 0 0 0 0 0 0 0 0 0 0 0 -12 0 -92 -139 -11 -2 -6
-7 0 0 0 0 0 -5 -1 -5 -139 -34 -168 0 0 0 0 0 0 0 0 0 0 0 0 0 0 0 0 0 -118 -99 -2
-3 -14 0 0 0 0 0 -16 -26 -81 -67 -199 0 0 0 0 0 0 0 0 0 0 0 0 0 0 0 0 0 0 -5 -126
-2 0 0 -1 0 0 0 0 -14 -8 -8 -92 -154 0 0 0 0 0 0 0 0 0 0 0 0 0 0 0 0 0 -4 -166
0 0 0 0 0 -7 0 0 -10 -5 -3 -1 0 0 0 0 0 0 0 0 0 0 0 0 0 0 0 0 0 0 0 0
-35 0 0 0 0 0 0 0 -19 -8 -33 0 0 0 0 0 0 0 0 0 0 0 0 0 0 0 0 0 0 0 0 0
-8 -4 0 0 0 0 0 -6 -15 -12 -23 0 0 0 -1 0 0 0 0 0 0 0 0 0 0 0 0 0 0 0 0 0
-2 -1 -48 -8 0 0 0 -4 -4 -5 -2 0 0 0 0 0 0 0 0 0 0 0 0 0 0 0 0 0 0 0 0 0
-1 -1 -1 -2 0 0 0 -3 -21 0 0 0 0 0 0 0 0 0 0 0 0 0 0 0 0 0 0 0 0 0 0 0
0 0 -12 0 0 0 0 -18 0 -50 0 0 0 0 0 0 0 0 0 0 0 0 0 0 0 0 0 0 0 0 0 0
0 -1 -5 0 0 0 -12 0 0 0 0 0 0 0 0 0 0 0 0 0 0 0 0 0 0 0 0 0 0 0 0 0
-2 -2 -5 -1 -42 0 0 0 0 0 0 0 0 0 0 0 0 0 0 0 0 0 0 0 0 0 0 0 0 0 0 0
-5 -3 0 0 0 0 0 -1 0 0 0 0 0 0 0 0 0 0 0 0 0 0 0 0 0 0 0 0 0 0 0 0
-9 0 0 0 0 0 0 0 0 0 0 0 0 0 0 0 0 0 0 -1 0 0 0 0 0 0 0 0 0 0 0 0
0 -1 0 0 -2 -1 0 0 0 0 0 0 0 0 0 0 -2 0 0 -1 0 0 0 0 0 0 0 0 0 0 0 0
0 -7 -4 0 -1 0 0 -1 0 0 0 0 0 -1 0 -1 -2 0 -2 -1 0 0 0 0 0 0 0 0 0 0 0 0
Wind_Speed
18 19 21 19 19 19 18 20 16 11 13 17 17 12 13 14 22 21 21 16 4 22 17 8 18 14 19 20 17 16 14 10
17 18 13 3 13 17 13 9 18 12 19 15 17 14 12 13 16 17 16 15 15 15 9 16 17 15 18 19 18 16 15 13
12 11 15 9 13 11 16 15 15 6 7 13 14 13 10 13 17 16 15 14 5 14 12 9 11 10 14 15 17 14 13 13
15 10 15 14 14 16 14 20 14 9 4 12 14 14 10 10 15 18 16 13 13 12 9 7 15 14 9 13 14 12 13 11
6 10 6 10 15 15 16 19 18 8 11 13 13 13 10 11 11 16 16 13 11 9 10 13 14 10 14 13 15 16 16 15
3 16 13 18 18 15 13 12 13 9 23 15 13 14 11 11 12 14 16 14 10 9 11 11 12 11 8 9 14 12 16 13
7 9 16 11 19 17 10 14 10 18 19 17 15 14 13 12 12 14 16 15 13 11 9 10 10 10 9 9 9 11 11 13
11 11 10 17 3 1 11 12 10 21 19 20 22 17 14 12 12 13 13 15 13 13 12 9 9 7 6 9 9 7 9 11
10 12 8 10 8 1 5 10 20 10 15 16 15 14 14 13 12 12 13 11 13 12 11 9 9 8 5 4 3 4 8 7
11 4 12 10 6 5 11 4 14 22 13 14 15 10 14 13 11 10 10 10 10 10 10 8 9 9 8 7 6 5 5 5
12 10 4 7 4 9 13 8 10 14 14 15 12 15 11 9 8 8 8 9 8 8 7 6 7 5 6 6 6 6 7 7
9 14 14 11 8 4 4 8 9 12 10 12 10 10 10 9 8 8 8 8 7 7 7 8 8 9 8 6 6 7 8 9
9 8 7 13 5 1 8 2 12 6 8 4 5 9 12 9 8 7 7 8 6 6 7 9 9 10 8 8 8 9 9 9
9 11 4 9 4 5 8 11 9 9 8 6 9 9 8 7 6 5 5 6 6 6 7 7 8 8 9 9 11 11 11 11
4 3 6 4 6 8 8 10 8 8 8 8 8 7 6 6 5 5 4 4 5 6 6 6 7 8 9 8 9 10 10 10
5 4 5 6 4 3 2 7 5 6 9 7 8 7 6 5 4 5 6 5 7 7 7 7 8 8 9 9 10 10 10 11
8 10 6 4 8 8 6 4 7 6 7 7 5 6 5 5 3 6 3 4 5 5 6 7 9 9 10 10 10 12 12 11
6 7 6 11 10 11 10 10 10 11 8 6 6 5 5 4 7 1 3 2 5 6 6 7 8 9 9 10 10 12 13 12
4 8 11 12 13 14 14 13 12 11 11 11 9 7 8 5 5 3 7 5 5 6 6 8 9 9 10 10 11 11 12 13
Wind_Direction
208 211 226 203 228 250 230 216 221 143 87 108 107 81 79 54 29 48 27 30 23 213 168 197 186 194 169 169 175 183 193 192
194 207 242 311 255 240 248 269 267 159 162 149 145 133 107 74 59 48 36 39 48 23 24 168 217 200 173 172 174 182 192 193
176 216 224 165 239 272 272 237 245 141 24 82 96 101 80 68 70 59 52 34 43 50 15 33 33 30 355 178 172 182 196 192
225 194 247 242 233 227 243 245 270 97 251 80 82 77 71 57 75 82 66 53 41 46 14 21 46 37 22 10 10 185 192 198
224 179 247 243 248 258 270 261 270 154 149 111 103 94 88 85 76 87 87 61 65 60 48 43 48 16 27 24 19 344 346 188
324 317 295 213 234 244 265 269 264 109 129 132 124 123 118 100 92 87 87 92 82 63 58 63 70 49 20 13 41 353 6 353
199 289 322 278 211 233 253 268 346 126 143 143 142 133 122 113 97 87 85 81 76 72 61 56 59 70 70 18 29 20 2 360
292 275 304 329 162 244 232 267 240 146 151 125 128 137 125 113 101 89 84 89 79 75 69 73 61 56 58 78 23 11 42 11
262 239 260 275 297 195 276 286 93 116 141 129 137 127 122 105 95 92 84 70 80 71 58 47 60 52 67 110 104 48 54 40
249 183 243 259 278 288 303 29 75 146 141 151 121 114 96 100 93 83 77 74 57 56 65 52 49 41 26 35 40 42 25 12
270 168 246 256 205 202 224 112 103 131 148 124 132 115 112 99 93 83 73 73 52 40 31 42 42 55 54 19 19 28 25 5
257 250 254 68 107 38 166 165 130 146 158 156 171 188 152 125 94 82 65 60 43 31 18 35 16 3 4 5 353 25 358 354
253 253 134 187 129 154 182 165 145 167 146 148 149 53 98 106 91 80 66 59 30 38 34 24 8 352 342 344 349 355 346 337
239 259 228 120 131 259 81 107 133 115 84 81 102 114 111 107 103 80 63 50 33 47 35 24 20 4 353 346 353 344 337 331
283 12 49 45 34 114 128 127 138 139 145 144 159 135 118 118 108 99 85 62 38 23 5 16 12 7 354 354 338 333 324 317
310 268 207 170 123 138 119 152 166 158 149 180 163 137 142 123 102 85 60 35 38 5 352 349 350 349 345 337 341 333 322 319
239 257 285 224 183 175 172 196 174 161 164 175 146 153 145 140 142 74 46 48 44 2 353 342 355 350 337 342 343 331 324 318
271 266 244 239 220 191 188 193 191 174 174 170 180 168 158 178 101 140 15 37 29 10 356 350 348 342 348 343 349 331 320 317
248 308 298 265 212 201 197 187 194 197 187 186 183 185 188 199 153 151 240 66 20 340 353 357 352 343 346 344 335 327 317 310